Regional Weather Roundup
Issued by NWS Mt. Holly, NJ

Current Version | Previous Version | Text Only | Print | Product List | Glossary Off
Versions: 1 2 3 4 5 6 7 8 9 10 11 12 13 14 15 16 17 18 19 20 21 22 23 24 25 26 27 28 29 30 31 32 33 34 35 36 37 38 39 40 41 42 43 44 45 46 47 48 49 50

000
ASUS41 KPHI 231812
RWRPHI

REGIONAL WEATHER ROUNDUP
NATIONAL WEATHER SERVICE MOUNT HOLLY NJ
200 PM EDT THU MAR 23 2017

NOTE:  "FAIR" INDICATES FEW OR NO CLOUDS BELOW 12,000 FEET WITH NO
SIGNIFICANT WEATHER AND/OR OBSTRUCTIONS TO VISIBILITY.

 * = STATION DOES NOT REPORT PRECIPITATION (E.G. RAIN, SNOW, ETC.)
        OR FOG.

NJZ015>026-231900-
SOUTHERN NEW JERSEY

CITY           SKY/WX    TMP DP  RH WIND       PRES   REMARKS
POMONA         SUNNY     43   3  19 CALM      30.57F
6HR MIN TEMP:  24; 6HR MAX TEMP:  43;

WILDWOOD*      SUNNY     35  11  36 W12       30.62F WCI  27
MILLVILLE      SUNNY     41   6  23 VRB3      30.59F
WRIGHTSTOWN    SUNNY     39   6  24 NW8       30.55F WCI  34
MOUNT HOLLY    SUNNY     39   6  25 NW6       30.58F WCI  35
TRENTON        SUNNY     39   8  27 VRB7      30.57F WCI  34
6HR MIN TEMP:  23; 6HR MAX TEMP:  40;


$$
NJZ001>014-231900-
NORTHERN NEW JERSEY

CITY           SKY/WX    TMP DP  RH WIND       PRES   REMARKS
SUSSEX         SUNNY     36   1  22 SW7       30.53F WCI  30
ANDOVER*         N/A     34  -2  21 SW7       30.53F WCI  28
MORRISTOWN     SUNNY     39   3  22 NW10G24   30.57F WCI  32
NEWARK         SUNNY     40  -1  18 NW13      30.56F WCI  32
TETERBORO      SUNNY     38   3  23 NW13G22   30.55F WCI  30
CALDWELL       SUNNY     38   0  20 NW7       30.56F WCI  33
SOMERVILLE     SUNNY     40   3  21 MISG      30.55F
ALLAIRE*       SUNNY     40  -1  18 NW10G20   30.57F WCI  33
TOMS RIVER*    SUNNY     40   2  20 CALM      30.57F

$$
PAZ043-044-047-054-055-060>062-066>071-231900-
EASTERN PENNSYLVANIA

CITY           SKY/WX    TMP DP  RH WIND       PRES   REMARKS
PHILADELPHIA   MOSUNNY   38   6  26 SW8       30.60F WCI  32
6HR MIN TEMP:  26; 6HR MAX TEMP:  39;

NORTH PHILA    SUNNY     41   7  24 VRB3      30.59F
BLUE BELL*     SUNNY     37  10  32 W3        30.56F
QUAKERTOWN*    SUNNY     37   9  30 NW3       30.56F
PERKASIE*      FAIR      37   7  28 NW7       30.56F WCI  32
POTTSTOWN      SUNNY     38   8  29 NW7       30.58F WCI  33
LANCASTER      SUNNY     40  12  32 NW7       30.58F
COATESVILLE    SUNNY     37   7  28 VRB7G15   30.57F WCI  32
READING        SUNNY     38  10  31 VRB3      30.56F
6HR MIN TEMP:  24; 6HR MAX TEMP:  39;

ALLENTOWN      SUNNY     39   7  26 MISG      30.56F
6HR MIN TEMP:  23; 6HR MAX TEMP:  39;

MOUNT POCONO   SUNNY     29  -1  27 NW7G17    30.46F WCI  22
6HR MIN TEMP:  12; 6HR MAX TEMP:  29;

HAZLETON       SUNNY     36   9  32 NW5       30.53F WCI  32
LEHIGHTON      FAIR      37   5  25 SW6       30.56F WCI  33
WILKES BARRE   SUNNY     31   5  33 VRB6      30.54F WCI  25

$$
DEZALL-MDZ008-012-015-019-020-231900-
DELAWARE AND EASTERN MARYLAND

CITY           SKY/WX    TMP DP  RH WIND       PRES   REMARKS
WILMINGTON     SUNNY     41   7  24 W6        30.60F
6HR MIN TEMP:  26; 6HR MAX TEMP:  41;

DOVER          SUNNY     40  12  32 NW5       30.60F
GEORGETOWN     SUNNY     42   8  24 VRB5      30.61F
6HR MIN TEMP:  28; 6HR MAX TEMP:  42;

EASTON         SUNNY     41   9  26 NW3       30.65F
ABERDEEN       SUNNY     39  11  31 S10       30.61F WCI  33
PATUXENT       MOSUNNY   39  13  34 NW3       30.63F
OCEAN CITY     SUNNY     37  15  40 E12       30.63F WCI  29
WALLOPS ISLAND MOSUNNY   39  15  37 SE3       30.63F
CAMBRIDGE      SUNNY     39   7  26 N6        30.62F WCI  35
SALISBURY        N/A    N/A N/A N/A MISG      30.61F

$$
PAZ001-021-NYZ056-072-MDZ011-DCZ001-231900-
OTHER NEARBY LOCATIONS

CITY           SKY/WX    TMP DP  RH WIND       PRES   REMARKS
HARRISBURG     MOSUNNY   40   8  26 NW7       30.58F
STATE COLLEGE  SUNNY     37   7  28 CALM      30.52F
WILLIAMSPORT   SUNNY     39   5  24 VRB3      30.56F
BINGHAMTON     SUNNY     28   3  34 W12       30.48F WCI  18
NEW YORK CITY  SUNNY     38   0  20 VRB5      30.57F WCI  34
BALTIMORE      MOSUNNY   42   2  18 N7        30.60F
WASHINGTON DC  SUNNY     42   6  22 SE6       30.63F

$$



USA.gov is the U.S. government's official web portal to all federal, state and local government web resources and services.